SAS295 EKCH-ESSA

Flight info

Callsign SAS295
Flight time 0h 53m
Altitude 39000
Route KEMAX N851 ROXEN DCT MIKNA N851 PELUP Z226 NILUG
Aircraft A20N/M-SDE2E3FGHIRWXY/LB1

Departure

Time 2026-04-26 16:32
Airport Copenhagen Kastrup Airport (EKCH)

Arrival

Time 2026-04-26 17:25
Airport Stockholm-Arlanda Airport (ESSA)
Time Latitude Longitude Altitude Speed Heading
2026-04-26 16:09 55.62648 12.64555 24 ft 0 kts 282°
2026-04-26 16:20 55.62647 12.64560 23 ft 1 kts 282°
2026-04-26 16:20 55.62644 12.64587 28 ft 1 kts 282°
2026-04-26 16:20 55.62642 12.64601 28 ft 1 kts 274°
2026-04-26 16:21 55.62642 12.64614 27 ft 1 kts 259°
2026-04-26 16:21 55.62644 12.64627 29 ft 1 kts 244°
2026-04-26 16:21 55.62647 12.64639 28 ft 1 kts 232°
2026-04-26 16:21 55.62652 12.64650 28 ft 1 kts 221°
2026-04-26 16:22 55.62658 12.64659 28 ft 1 kts 211°
2026-04-26 16:22 55.62664 12.64666 27 ft 1 kts 205°
2026-04-26 16:22 55.62671 12.64671 28 ft 1 kts 198°
2026-04-26 16:22 55.62674 12.64673 28 ft 0 kts 197°
2026-04-26 16:25 55.62663 12.64668 23 ft 5 kts 194°
2026-04-26 16:26 55.62608 12.64653 24 ft 10 kts 183°
2026-04-26 16:26 55.62525 12.64655 25 ft 14 kts 176°
2026-04-26 16:26 55.62418 12.64672 23 ft 17 kts 176°
2026-04-26 16:26 55.62316 12.64737 23 ft 15 kts 132°
2026-04-26 16:27 55.62216 12.64770 25 ft 16 kts 206°
2026-04-26 16:27 55.62116 12.64660 25 ft 18 kts 213°
2026-04-26 16:27 55.62003 12.64527 24 ft 20 kts 209°
2026-04-26 16:27 55.61862 12.64522 23 ft 21 kts 168°
2026-04-26 16:28 55.61707 12.64553 26 ft 24 kts 186°
2026-04-26 16:28 55.61556 12.64425 25 ft 25 kts 213°
2026-04-26 16:28 55.61407 12.64252 23 ft 26 kts 213°
2026-04-26 16:28 55.61250 12.64070 26 ft 28 kts 212°
2026-04-26 16:29 55.61089 12.63881 25 ft 29 kts 213°
2026-04-26 16:29 55.60928 12.63701 26 ft 21 kts 212°
2026-04-26 16:29 55.60802 12.63610 23 ft 20 kts 168°
2026-04-26 16:29 55.60706 12.63767 26 ft 18 kts 127°
2026-04-26 16:30 55.60693 12.63890 28 ft 10 kts 49°
2026-04-26 16:30 55.60698 12.63898 26 ft 0 kts 45°
2026-04-26 16:31 55.60732 12.63953 29 ft 31 kts 41°
2026-04-26 16:31 55.61074 12.64484 23 ft 99 kts 40°
2026-04-26 16:32 55.61742 12.65520 25 ft 150 kts 41°
2026-04-26 16:32 55.62285 12.66413 162 ft 164 kts 41°
2026-04-26 16:32 55.63368 12.68223 1076 ft 162 kts 36°
2026-04-26 16:32 55.64225 12.69534 1748 ft 163 kts 33°
2026-04-26 16:33 55.65118 12.70791 2381 ft 164 kts 30°
2026-04-26 16:33 55.66037 12.71991 3013 ft 163 kts 27°
2026-04-26 16:33 55.66970 12.73129 3574 ft 166 kts 28°
2026-04-26 16:33 55.67919 12.74520 3947 ft 188 kts 34°
2026-04-26 16:34 55.68925 12.76151 4339 ft 209 kts 35°
2026-04-26 16:34 55.70057 12.77967 4814 ft 231 kts 35°
2026-04-26 16:34 55.71294 12.79897 5579 ft 239 kts 34°
2026-04-26 16:34 55.72564 12.81845 6468 ft 246 kts 34°
2026-04-26 16:35 55.73921 12.83886 7067 ft 264 kts 34°
2026-04-26 16:35 55.75329 12.86026 8011 ft 268 kts 35°
2026-04-26 16:35 55.76732 12.88236 9023 ft 272 kts 35°
2026-04-26 16:35 55.78155 12.90495 10011 ft 277 kts 35°
2026-04-26 16:36 55.79618 12.92812 10787 ft 288 kts 35°
2026-04-26 16:36 55.81164 12.95237 11159 ft 311 kts 35°
2026-04-26 16:36 55.82843 12.97872 11594 ft 329 kts 35°
2026-04-26 16:36 55.84576 13.00612 12416 ft 335 kts 35°
2026-04-26 16:37 55.86327 13.03392 13272 ft 340 kts 35°
2026-04-26 16:37 55.88108 13.06218 14093 ft 345 kts 35°
2026-04-26 16:37 55.89913 13.09081 14846 ft 349 kts 35°
2026-04-26 16:37 55.91117 13.10993 15348 ft 352 kts 35°
2026-04-26 16:38 55.93583 13.14911 16374 ft 357 kts 34°
2026-04-26 16:38 55.95456 13.17891 17107 ft 362 kts 34°
2026-04-26 16:38 55.97345 13.20899 17853 ft 366 kts 34°
2026-04-26 16:38 55.99232 13.23907 18588 ft 370 kts 34°
2026-04-26 16:39 56.01162 13.26988 19194 ft 374 kts 34°
2026-04-26 16:39 56.03113 13.30106 19814 ft 378 kts 33°
2026-04-26 16:39 56.05093 13.33276 20431 ft 382 kts 33°
2026-04-26 16:39 56.07086 13.36471 21060 ft 386 kts 33°
2026-04-26 16:40 56.09099 13.39701 21691 ft 390 kts 33°
2026-04-26 16:40 56.11131 13.42969 22283 ft 394 kts 33°
2026-04-26 16:40 56.13219 13.46173 22890 ft 393 kts 28°
2026-04-26 16:40 56.15436 13.49060 23495 ft 395 kts 27°
2026-04-26 16:41 56.17674 13.51976 24056 ft 400 kts 28°
2026-04-26 16:41 56.19825 13.55116 24543 ft 406 kts 31°
2026-04-26 16:41 56.21999 13.58393 25044 ft 409 kts 31°
2026-04-26 16:41 56.24190 13.61708 25539 ft 412 kts 31°
2026-04-26 16:42 56.26392 13.65038 26016 ft 415 kts 31°
2026-04-26 16:42 56.28616 13.68395 26478 ft 418 kts 31°
2026-04-26 16:42 56.30861 13.71782 26929 ft 421 kts 31°
2026-04-26 16:42 56.33116 13.75185 27383 ft 424 kts 31°
2026-04-26 16:43 56.35392 13.78626 27805 ft 428 kts 31°
2026-04-26 16:43 56.37652 13.82049 28236 ft 431 kts 32°
2026-04-26 16:43 56.39952 13.85540 28625 ft 434 kts 32°
2026-04-26 16:43 56.42272 13.89069 29024 ft 437 kts 32°
2026-04-26 16:44 56.44602 13.92620 29396 ft 440 kts 32°
2026-04-26 16:44 56.46956 13.96213 29764 ft 443 kts 32°
2026-04-26 16:44 56.49319 13.99828 30125 ft 445 kts 32°
2026-04-26 16:44 56.51696 14.03468 30468 ft 448 kts 32°
2026-04-26 16:45 56.54059 14.07095 30767 ft 451 kts 32°
2026-04-26 16:45 56.56464 14.10791 31073 ft 454 kts 32°
2026-04-26 16:45 56.58877 14.14506 31399 ft 456 kts 32°
2026-04-26 16:45 56.61294 14.18237 31791 ft 456 kts 33°
2026-04-26 16:46 56.63717 14.21984 32203 ft 456 kts 33°
2026-04-26 16:46 56.66130 14.25721 32604 ft 455 kts 33°
2026-04-26 16:46 56.68512 14.29415 32993 ft 455 kts 33°
2026-04-26 16:46 56.70921 14.33157 33378 ft 455 kts 33°
2026-04-26 16:47 56.73329 14.36903 33743 ft 455 kts 33°
2026-04-26 16:47 56.75727 14.40641 34106 ft 454 kts 33°
2026-04-26 16:47 56.78133 14.44399 34404 ft 454 kts 33°
2026-04-26 16:47 56.80539 14.48161 34698 ft 455 kts 33°
2026-04-26 16:48 56.82940 14.51923 34962 ft 455 kts 33°
2026-04-26 16:48 56.85338 14.55687 35230 ft 455 kts 33°
2026-04-26 16:48 56.87741 14.59466 35494 ft 455 kts 34°
2026-04-26 16:48 56.90143 14.63250 35751 ft 456 kts 34°
2026-04-26 16:49 56.92547 14.67044 35999 ft 456 kts 34°
2026-04-26 16:49 56.94949 14.70843 36249 ft 456 kts 34°
2026-04-26 16:49 56.97350 14.74646 36490 ft 456 kts 34°
2026-04-26 16:49 56.99753 14.78459 36728 ft 456 kts 34°
2026-04-26 16:50 57.02125 14.82230 36949 ft 457 kts 34°
2026-04-26 16:50 57.04527 14.86056 37181 ft 457 kts 34°
2026-04-26 16:50 57.06934 14.89896 37403 ft 457 kts 34°
2026-04-26 16:50 57.09332 14.93729 37624 ft 457 kts 34°
2026-04-26 16:51 57.11730 14.97567 37819 ft 457 kts 34°
2026-04-26 16:51 57.14130 15.01417 38031 ft 457 kts 34°
2026-04-26 16:51 57.16526 15.05266 38239 ft 457 kts 34°
2026-04-26 16:51 57.18919 15.09118 38439 ft 457 kts 34°
2026-04-26 16:52 57.21321 15.12992 38611 ft 457 kts 34°
2026-04-26 16:52 57.22907 15.15553 38735 ft 457 kts 35°
2026-04-26 16:52 57.26087 15.20697 38950 ft 457 kts 35°
2026-04-26 16:52 57.28478 15.24574 39110 ft 457 kts 35°
2026-04-26 16:53 57.33265 15.32356 39185 ft 456 kts 35°
2026-04-26 16:53 57.38024 15.40121 39186 ft 456 kts 35°
2026-04-26 16:54 57.42787 15.47919 39185 ft 456 kts 35°
2026-04-26 16:54 57.47537 15.55726 39179 ft 456 kts 35°
2026-04-26 16:55 57.52260 15.63514 39180 ft 456 kts 36°
2026-04-26 16:55 57.57016 15.71387 39191 ft 457 kts 36°
2026-04-26 16:56 57.64144 15.83239 39184 ft 457 kts 36°
2026-04-26 16:57 57.68854 15.91107 39167 ft 457 kts 36°
2026-04-26 16:57 57.75973 16.03052 38970 ft 457 kts 36°
2026-04-26 16:58 57.78340 16.07039 38738 ft 457 kts 36°
2026-04-26 16:58 57.79105 16.08329 38654 ft 457 kts 36°
2026-04-26 16:58 57.85391 16.18960 37968 ft 457 kts 36°
2026-04-26 16:59 57.87752 16.22963 37708 ft 457 kts 36°
2026-04-26 16:59 57.92470 16.30991 37212 ft 457 kts 36°
2026-04-26 17:00 57.97190 16.39049 36727 ft 458 kts 37°
2026-04-26 17:00 58.01920 16.47158 36249 ft 458 kts 37°
2026-04-26 17:00 58.04273 16.51201 36013 ft 459 kts 37°
2026-04-26 17:01 58.06603 16.55213 35499 ft 462 kts 37°
2026-04-26 17:01 58.08986 16.59319 34760 ft 465 kts 37°
2026-04-26 17:01 58.11397 16.63483 33813 ft 472 kts 37°
2026-04-26 17:01 58.13827 16.67691 33011 ft 472 kts 37°
2026-04-26 17:02 58.16248 16.71896 32169 ft 473 kts 37°
2026-04-26 17:02 58.18681 16.76127 31351 ft 473 kts 37°
2026-04-26 17:02 58.21067 16.80288 30782 ft 468 kts 37°
2026-04-26 17:02 58.23436 16.84431 30473 ft 458 kts 37°
2026-04-26 17:03 58.25780 16.88534 30244 ft 458 kts 37°
2026-04-26 17:03 58.28135 16.92651 29969 ft 461 kts 37°
2026-04-26 17:03 58.29724 16.95437 29776 ft 459 kts 37°
2026-04-26 17:03 58.32036 16.99500 29507 ft 455 kts 37°
2026-04-26 17:04 58.34360 17.03592 29098 ft 454 kts 38°
2026-04-26 17:04 58.36670 17.07668 28364 ft 449 kts 38°
2026-04-26 17:04 58.38936 17.11678 27563 ft 440 kts 38°
2026-04-26 17:04 58.41154 17.15610 26822 ft 430 kts 38°
2026-04-26 17:05 58.43307 17.19433 26109 ft 423 kts 38°
2026-04-26 17:05 58.45449 17.23237 25415 ft 419 kts 38°
2026-04-26 17:05 58.47570 17.27008 24735 ft 413 kts 38°
2026-04-26 17:05 58.49651 17.30718 24058 ft 406 kts 38°
2026-04-26 17:06 58.51705 17.34385 23332 ft 400 kts 38°
2026-04-26 17:06 58.53726 17.38000 22532 ft 395 kts 38°
2026-04-26 17:06 58.55716 17.41568 21747 ft 389 kts 38°
2026-04-26 17:06 58.57679 17.45092 20970 ft 384 kts 38°
2026-04-26 17:07 58.59592 17.48531 20240 ft 378 kts 38°
2026-04-26 17:07 58.61510 17.51983 19522 ft 378 kts 38°
2026-04-26 17:07 58.63431 17.55442 18853 ft 378 kts 38°
2026-04-26 17:07 58.65350 17.58906 18195 ft 377 kts 38°
2026-04-26 17:08 58.67253 17.62347 17475 ft 374 kts 38°
2026-04-26 17:08 58.69144 17.65772 16782 ft 372 kts 38°
2026-04-26 17:08 58.71021 17.69175 16103 ft 370 kts 38°
2026-04-26 17:08 58.72888 17.72565 15426 ft 367 kts 38°
2026-04-26 17:09 58.74739 17.75929 14774 ft 365 kts 38°
2026-04-26 17:09 58.75958 17.78148 14357 ft 363 kts 38°
2026-04-26 17:09 58.78413 17.82469 13462 ft 356 kts 31°
2026-04-26 17:09 58.80594 17.84510 12761 ft 343 kts 11°
2026-04-26 17:10 58.82879 17.85424 12204 ft 327 kts
2026-04-26 17:10 58.85070 17.86240 11668 ft 314 kts
2026-04-26 17:10 58.87178 17.87023 11257 ft 304 kts
2026-04-26 17:10 58.89229 17.87784 11099 ft 293 kts
2026-04-26 17:11 58.91154 17.88512 11081 ft 280 kts
2026-04-26 17:11 58.93086 17.89250 11090 ft 285 kts
2026-04-26 17:11 58.95035 17.89992 11086 ft 284 kts
2026-04-26 17:11 58.96973 17.90729 11087 ft 283 kts
2026-04-26 17:12 59.00854 17.92206 10807 ft 285 kts
2026-04-26 17:12 59.02797 17.92943 10421 ft 282 kts
2026-04-26 17:13 59.06551 17.94362 9608 ft 267 kts
2026-04-26 17:13 59.08336 17.95040 9195 ft 256 kts
2026-04-26 17:13 59.11760 17.96313 8384 ft 251 kts
2026-04-26 17:14 59.13454 17.96915 8131 ft 240 kts
2026-04-26 17:14 59.16544 17.98015 7556 ft 218 kts
2026-04-26 17:14 59.18005 17.98524 7198 ft 212 kts
2026-04-26 17:15 59.20900 17.99510 7097 ft 211 kts
2026-04-26 17:15 59.22344 18.00003 7101 ft 211 kts
2026-04-26 17:15 59.23790 18.00495 7097 ft 210 kts
2026-04-26 17:16 59.25235 18.00956 7100 ft 210 kts
2026-04-26 17:16 59.26629 18.00329 7100 ft 210 kts 330°
2026-04-26 17:16 59.27639 17.98233 7109 ft 217 kts 308°
2026-04-26 17:16 59.28455 17.95745 7101 ft 216 kts 307°
2026-04-26 17:17 59.29253 17.93294 7102 ft 216 kts 307°
2026-04-26 17:17 59.30064 17.90803 7103 ft 217 kts 307°
2026-04-26 17:17 59.30880 17.88291 6971 ft 218 kts 307°
2026-04-26 17:17 59.31689 17.85784 6524 ft 218 kts 307°
2026-04-26 17:18 59.32503 17.83256 5981 ft 220 kts 307°
2026-04-26 17:18 59.33298 17.80797 5458 ft 221 kts 307°
2026-04-26 17:18 59.34283 17.78600 4928 ft 214 kts 331°
2026-04-26 17:18 59.35680 17.77813 4385 ft 210 kts
2026-04-26 17:19 59.38264 17.80138 4034 ft 211 kts 27°
2026-04-26 17:19 59.39513 17.81612 4026 ft 208 kts 27°
2026-04-26 17:19 59.40752 17.83074 4026 ft 208 kts 27°
2026-04-26 17:20 59.41997 17.84540 4028 ft 209 kts 27°
2026-04-26 17:20 59.42820 17.85503 4022 ft 204 kts 27°
2026-04-26 17:20 59.44354 17.87329 4021 ft 182 kts 27°
2026-04-26 17:20 59.45397 17.88453 3964 ft 168 kts 19°
2026-04-26 17:21 59.46513 17.89199 3781 ft 168 kts 12°
2026-04-26 17:21 59.47643 17.89679 3552 ft 165 kts
2026-04-26 17:21 59.48765 17.90071 3327 ft 164 kts
2026-04-26 17:21 59.49887 17.90477 3089 ft 165 kts
2026-04-26 17:22 59.51008 17.90879 2837 ft 163 kts
2026-04-26 17:22 59.52138 17.91286 2611 ft 166 kts
2026-04-26 17:22 59.53261 17.91691 2371 ft 162 kts
2026-04-26 17:22 59.54385 17.92095 2177 ft 164 kts
2026-04-26 17:23 59.55485 17.92493 1917 ft 155 kts
2026-04-26 17:23 59.56494 17.92857 1697 ft 139 kts
2026-04-26 17:23 59.57390 17.93181 1506 ft 126 kts
2026-04-26 17:23 59.58218 17.93479 1326 ft 120 kts
2026-04-26 17:24 59.59031 17.93772 1071 ft 118 kts
2026-04-26 17:24 59.59845 17.94065 836 ft 118 kts
2026-04-26 17:24 59.60657 17.94360 622 ft 119 kts
2026-04-26 17:24 59.61475 17.94661 427 ft 119 kts
2026-04-26 17:25 59.62286 17.94970 235 ft 117 kts
2026-04-26 17:25 59.63091 17.95267 145 ft 116 kts 358°
2026-04-26 17:25 59.63753 17.95461 114 ft 75 kts 10°
2026-04-26 17:25 59.64034 17.95533 111 ft 25 kts 357°
2026-04-26 17:26 59.64212 17.95473 108 ft 26 kts 344°
2026-04-26 17:26 59.64298 17.95415 107 ft 0 kts 340°
2026-04-26 17:28 59.64331 17.95393 106 ft 11 kts 340°
2026-04-26 17:29 59.64419 17.95335 105 ft 15 kts 347°
2026-04-26 17:29 59.64490 17.95336 105 ft 16 kts
2026-04-26 17:29 59.64652 17.95397 105 ft 19 kts
2026-04-26 17:29 59.64781 17.95438 106 ft 19 kts
2026-04-26 17:30 59.64916 17.95487 109 ft 20 kts 12°
2026-04-26 17:30 59.65046 17.95508 115 ft 18 kts 353°
2026-04-26 17:30 59.65160 17.95450 119 ft 16 kts 343°
2026-04-26 17:30 59.65261 17.95395 123 ft 14 kts 345°
2026-04-26 17:31 59.65352 17.95349 125 ft 13 kts 345°
2026-04-26 17:31 59.65445 17.95300 124 ft 15 kts 345°
2026-04-26 17:31 59.65547 17.95250 125 ft 16 kts 345°
2026-04-26 17:31 59.65660 17.95189 128 ft 18 kts 344°
2026-04-26 17:32 59.65740 17.95028 125 ft 19 kts 278°
2026-04-26 17:32 59.65720 17.94762 122 ft 21 kts 258°
2026-04-26 17:32 59.65683 17.94476 124 ft 22 kts 255°
2026-04-26 17:32 59.65644 17.94173 120 ft 24 kts 256°
2026-04-26 17:33 59.65600 17.93819 112 ft 29 kts 255°
2026-04-26 17:33 59.65549 17.93419 111 ft 31 kts 256°
2026-04-26 17:33 59.65493 17.93006 111 ft 31 kts 253°
2026-04-26 17:34 59.65327 17.92747 111 ft 13 kts 148°
2026-04-26 17:34 59.65237 17.92843 111 ft 14 kts 149°
2026-04-26 17:34 59.65182 17.92915 111 ft 7 kts 165°
2026-04-26 17:34 59.65148 17.92905 111 ft 4 kts 202°
2026-04-26 17:35 59.65133 17.92892 111 ft 0 kts 205°